Lapse_Rate
5.3 5.1 5.2 5.4 5.0 4.7 5.0 4.8 5.0 5.1 5.2 4.7 4.9 4.9 5.2 5.3 5.3 5.3 5.5 6.0 6.0 5.8 6.1 6.1 6.0 5.8 5.9 5.9 5.7 5.5 5.7 5.6
6.0 6.1 5.8 5.8 5.2 4.9 5.2 5.6 5.6 5.6 5.5 5.3 5.2 5.7 5.8 6.0 5.8 5.6 5.9 5.9 6.0 6.0 6.3 5.9 5.9 6.0 5.9 5.8 5.7 5.5 5.7 5.6
7.6 7.3 6.8 7.1 6.9 6.7 6.3 6.3 6.3 6.0 5.8 5.8 5.9 6.0 6.2 6.1 5.9 5.9 6.0 6.1 6.1 6.2 6.2 6.0 6.0 6.1 6.1 5.8 5.6 5.7 5.8 5.8
7.6 7.3 7.3 7.4 6.9 6.7 6.4 6.5 6.5 6.2 6.1 6.2 6.3 6.3 6.3 6.5 6.5 6.6 6.6 6.3 6.1 6.1 6.3 6.4 6.0 6.1 6.1 5.9 5.8 5.9 5.7 5.6
7.8 7.6 7.4 7.3 7.1 6.9 7.0 6.9 6.6 6.6 6.6 6.8 6.8 6.8 6.8 6.8 6.6 6.7 6.5 6.5 6.4 6.4 6.3 6.1 6.2 6.3 6.2 6.2 5.9 5.9 5.6 4.9
8.1 8.0 7.9 7.8 7.5 7.4 7.2 7.0 6.8 6.8 6.9 6.9 7.0 7.0 6.8 6.8 6.8 6.9 6.6 6.7 6.5 6.4 6.3 6.1 6.3 6.6 6.3 6.3 6.0 5.8 5.6 5.2
8.0 8.0 7.9 7.8 7.8 7.7 7.6 7.6 7.5 7.4 7.1 7.0 7.1 7.0 6.8 7.0 7.1 7.0 6.7 6.9 6.7 6.6 6.5 6.4 6.3 6.4 6.3 6.1 5.8 5.6 5.5 5.3
7.6 7.8 8.0 8.1 7.9 7.8 7.7 7.6 7.5 7.4 7.8 7.2 7.1 7.1 6.8 7.0 7.2 6.9 6.6 6.8 6.8 6.5 6.5 6.6 6.5 6.4 6.3 6.2 5.6 5.8 5.6 5.3
7.8 7.3 7.5 7.8 8.0 8.2 7.9 7.7 7.5 7.2 7.6 7.5 7.0 7.0 7.0 6.9 6.8 6.9 6.9 6.9 6.7 6.5 6.6 6.5 6.4 6.2 6.4 6.1 5.6 5.7 5.6 5.6
8.2 8.0 7.4 7.4 7.5 7.9 8.1 7.9 7.8 7.5 7.4 7.5 7.4 7.2 7.0 7.0 6.9 6.9 6.9 6.7 6.5 6.6 6.5 6.5 6.2 6.0 6.1 5.9 5.5 5.5 5.5 5.9
8.4 8.3 8.1 7.6 7.6 7.5 7.7 7.8 7.6 7.6 7.4 7.4 7.4 7.3 7.1 7.1 7.0 6.9 6.6 6.4 6.3 6.4 6.0 6.2 6.2 5.8 5.5 5.9 5.8 5.7 6.0 5.9
8.5 8.5 8.5 8.2 7.9 7.7 7.6 7.7 7.9 7.6 7.4 7.5 7.5 7.6 7.4 7.2 7.2 7.0 6.9 7.0 6.8 6.4 5.9 5.9 5.9 5.7 5.9 5.8 5.9 5.8 5.6 5.5
8.1 8.5 8.3 8.2 8.0 7.5 7.3 7.6 7.6 7.5 7.3 7.2 7.8 7.7 7.5 7.5 7.3 7.1 7.2 7.0 7.1 6.8 6.6 6.1 5.7 5.8 5.9 5.4 5.3 5.4 5.9 5.3
8.0 7.9 8.3 8.3 8.1 7.6 7.2 7.8 8.1 7.8 6.8 7.0 8.2 7.8 7.3 7.4 7.3 7.5 7.4 7.2 6.9 6.5 6.2 5.9 5.8 6.0 5.6 5.2 5.2 5.3 5.3 5.3
8.2 7.9 7.7 7.9 8.0 8.1 7.7 7.0 7.2 7.3 7.1 7.8 8.0 7.1 7.6 7.7 7.6 7.7 7.4 7.2 6.9 6.4 6.3 6.0 6.0 6.0 5.9 5.5 5.3 5.3 5.6 5.5
8.2 8.1 7.8 7.4 7.7 7.9 8.0 7.1 7.6 7.7 7.8 7.8 7.8 7.8 7.8 7.6 7.6 7.3 6.8 6.7 6.5 6.1 6.1 6.1 6.0 5.9 5.5 5.2 5.2 5.3 5.4 5.2
7.9 8.0 7.9 7.6 7.0 7.6 7.7 7.8 7.6 7.5 7.6 7.7 7.8 7.6 8.0 7.4 6.6 6.9 7.0 6.3 6.2 6.3 6.3 6.1 5.5 5.2 5.2 5.3 5.3 5.2 5.2 5.1
7.9 8.0 7.9 7.2 7.2 7.7 7.6 7.6 7.5 7.6 7.8 7.8 7.8 8.0 7.6 7.3 7.2 7.1 6.9 6.6 6.4 6.3 6.0 5.5 5.4 5.4 5.2 5.4 5.4 5.4 5.2 5.3
7.8 7.6 7.4 7.5 7.5 7.5 7.4 7.5 7.7 7.8 7.7 7.8 7.8 7.8 7.5 7.4 7.3 6.8 6.4 6.4 6.1 5.8 5.4 5.4 5.3 5.2 5.4 5.5 5.4 5.1 5.2 5.2
Wind_Speed
15 15 15 13 13 13 13 12 13 13 10 12 12 8 13 18 14 12 16 13 15 16 11 12 10 5 4 3 3 1 3 2
16 17 16 18 15 15 16 14 15 12 8 11 9 8 5 3 7 14 14 13 14 10 9 11 9 5 5 5 2 3 1 3
18 17 15 17 18 17 16 16 17 14 11 10 7 6 5 4 11 14 16 12 14 11 8 7 8 5 7 5 5 3 2 4
17 15 15 20 21 20 19 19 17 15 15 9 6 6 6 5 6 7 8 10 8 8 10 11 7 6 5 4 4 3 2 3
18 20 18 17 18 18 18 15 16 13 13 10 10 8 8 6 5 6 7 13 13 16 10 10 9 7 6 5 4 2 3 2
22 22 22 21 20 18 16 16 14 15 13 8 8 8 6 6 7 8 5 4 6 8 13 12 8 6 6 7 5 4 3 2
21 20 19 18 17 19 18 16 17 16 16 14 10 12 12 9 9 9 7 6 5 10 12 12 10 6 6 5 6 6 3 2
21 23 21 21 21 19 16 17 17 16 18 15 14 11 10 13 13 8 9 8 7 10 8 7 5 7 10 10 6 5 3 2
22 23 23 23 23 23 21 20 20 17 19 17 14 12 9 8 11 9 7 8 8 8 7 9 10 13 12 11 4 2 3 4
18 18 23 22 22 23 23 22 20 17 15 15 13 12 10 8 8 6 7 7 7 8 9 7 7 14 13 9 4 4 1 3
6 16 17 19 19 20 21 20 18 16 13 13 13 13 12 8 7 10 9 6 5 5 7 11 11 10 10 6 4 3 6 6
5 6 8 17 16 16 19 19 19 15 16 14 14 12 10 6 7 7 7 7 10 10 9 11 9 7 5 5 5 8 8 4
5 3 3 4 12 16 15 14 14 14 14 13 12 11 9 8 7 10 12 12 12 13 13 10 8 6 5 5 6 4 7 6
6 7 5 5 5 11 14 14 15 14 10 11 13 8 10 9 9 10 11 12 12 11 11 11 8 6 5 5 7 9 7 7
6 7 7 6 5 6 6 11 8 8 11 11 10 9 10 10 11 11 10 9 10 9 9 9 8 9 10 11 11 6 4 3
4 5 8 9 6 6 5 11 12 11 13 11 9 11 11 11 12 12 11 10 7 8 8 6 7 7 8 8 2 4 4 4
7 6 2 10 10 7 12 12 13 13 11 11 10 10 11 10 9 10 10 10 8 7 8 8 8 8 10 9 6 3 2 4
3 3 5 10 13 12 13 12 12 12 12 10 10 10 9 8 12 11 10 8 7 6 6 8 6 4 9 8 7 3 1 4
2 2 11 12 13 12 12 11 12 13 10 10 10 10 10 9 10 9 9 8 8 7 6 4 3 2 9 6 5 1 3 5
Wind_Direction
141 141 142 142 139 143 151 157 159 167 171 186 203 214 200 198 196 182 196 175 192 199 168 132 162 154 155 181 148 234 150 84
160 165 169 157 157 165 167 165 172 177 202 208 205 194 173 176 185 207 190 195 191 198 144 142 201 171 166 136 139 149 97 120
167 166 164 166 165 173 176 184 188 197 198 198 194 176 175 176 197 199 192 190 190 186 166 161 206 148 131 155 176 202 153 102
171 177 183 171 177 184 188 189 186 191 196 209 185 154 172 181 207 187 182 164 210 217 190 166 177 140 147 177 199 195 178 144
173 178 187 184 185 184 193 201 183 193 208 190 186 184 174 186 179 182 174 178 190 210 191 170 169 153 159 174 190 159 117 107
180 189 185 185 184 194 204 204 189 190 205 220 183 173 187 176 181 168 147 167 182 185 229 182 168 167 165 170 138 137 137 123
181 186 183 189 190 191 201 211 193 195 192 196 212 180 191 177 165 169 173 177 188 216 224 172 171 176 155 135 131 134 136 168
183 182 189 190 194 196 197 201 220 198 191 198 190 220 192 183 172 169 171 187 191 205 214 163 162 162 125 124 113 118 161 204
186 187 189 195 194 193 198 200 213 216 184 192 191 201 207 186 181 180 184 190 193 195 190 171 164 126 114 108 115 141 176 234
194 191 188 194 192 192 195 199 204 213 186 186 190 197 211 178 185 182 183 181 198 202 181 165 132 121 113 111 131 166 89 247
241 203 195 189 194 191 190 197 204 207 210 191 188 189 205 187 180 184 173 174 197 175 154 117 108 105 114 127 143 158 228 236
246 253 211 189 186 183 184 191 199 205 205 194 188 183 173 177 159 143 128 100 96 81 84 87 99 119 133 154 180 213 223 203
167 218 264 197 176 178 181 183 195 211 205 190 163 154 157 159 134 125 133 135 124 121 125 128 135 156 162 195 215 232 237 234
180 162 186 205 204 171 178 185 193 210 202 139 147 141 130 143 141 137 124 130 129 131 136 145 147 150 161 221 218 230 225 228
214 167 172 179 180 177 179 172 165 112 125 129 134 139 132 130 121 118 123 124 130 135 140 147 168 172 194 220 223 220 226 245
211 224 175 162 156 147 156 90 110 121 122 123 115 115 116 122 127 131 129 128 127 128 138 161 187 199 219 229 206 67 25 345
24 2 283 151 134 107 94 94 104 108 96 107 114 118 123 123 121 122 118 120 135 159 176 190 198 222 131 115 112 99 5 323
86 319 309 101 93 106 103 101 107 103 109 113 119 116 116 117 127 131 131 149 163 174 198 210 204 147 138 129 124 126 227 275
161 198 94 101 103 104 104 106 104 109 118 121 125 128 134 132 128 138 150 164 180 194 202 129 116 95 142 132 125 226 255 264